Florala, AL

1:48 AM CST on November 19, 2017 (GMT -0600)
Florala

Weather History for K0J4 - January, 2014

Change the Weather History Date:

Thursday, January 16, 2014

  Actual Average (KCEW) Record (KCEW)
Temperature  
Mean Temperature 39 °F -  
Max Temperature 52 °F 59 °F 81 °F (1950)
Min Temperature 26 °F 35 °F 23 °F (1983)
Degree Days  
Heating Degree Days 26    
Moisture  
Dew Point 20 °F    
Average Humidity 51    
Maximum Humidity 78    
Minimum Humidity 22    
Precipitation  
Precipitation 0.00 in - - ()
Sea Level Pressure  
Sea Level Pressure 30.15 in    
Wind  
Wind Speed 2 mph (SW)    
Max Wind Speed 8 mph    
Max Gust Speed -    
Visibility 10 miles    
Events      
Averages and records for this station are not official NWS values.
T = Trace of Precipitation, MM = Missing Value Source: NWS Daily Summary

Daily Weather History Graph

Daily Weather History Graph

Search for Another Location

Airport or City:

Trip Planner

Search our weather history database for the weather conditions in past years. The results will help you decide how hot, cold, wet, or windy it might be!

Date:

Astronomy

Jan. 16, 2014 Rise Set
Actual Time 6:43 AM CST 5:06 PM CST
Civil Twilight 6:17 AM CST 5:32 PM CST
Nautical Twilight 5:48 AM CST 6:02 PM CST
Astronomical Twilight 5:19 AM CST 6:31 PM CST
Moon 5:51 PM CST (1/16) 6:42 AM CST (1/16)
Length of Visible Light 11h 14m
Length of Day
10h 22m
Full, 100% of the Moon is Illuminated
Jan 16
Full
Jan 23
Last Quarter
Jan 30
New
Feb 6
First Quarter
Feb 14
Full

Hourly Weather History & Observations

Time (CST) Temp. Windchill Dew Point Humidity Pressure Visibility Wind Dir Wind Speed Gust Speed Precip Events Conditions
12:58 AM 32.0 °F - 19.9 °F 61% 30.17 in 10.0 mi Calm Calm - N/A   Clear
1:58 AM 30.0 °F - 21.0 °F 69% 30.17 in 10.0 mi Calm Calm - N/A   Clear
2:58 AM 28.9 °F - 18.0 °F 64% 30.17 in 10.0 mi Calm Calm - N/A   Clear
3:58 AM 28.0 °F - 19.0 °F 69% 30.17 in 10.0 mi Calm Calm - 0.00 in   Clear
4:58 AM 27.0 °F - 21.0 °F 78% 30.17 in 10.0 mi Calm Calm - N/A   Clear
5:58 AM 26.1 °F - 18.0 °F 71% 30.18 in 10.0 mi Calm Calm - N/A   Clear
6:58 AM 27.0 °F - 18.0 °F 69% 30.20 in 10.0 mi Calm Calm - N/A   Clear
7:58 AM 32.0 °F - 18.0 °F 56% 30.21 in 10.0 mi Calm Calm - 0.00 in   Clear
8:58 AM 37.0 °F - 17.1 °F 44% 30.22 in 10.0 mi Calm Calm - 0.00 in   Clear
9:58 AM 39.9 °F 37.8 °F 15.1 °F 36% 30.23 in 10.0 mi Variable 3.5 mph - N/A   Clear
10:58 AM 44.1 °F - 12.0 °F 27% 30.21 in 10.0 mi Calm Calm - N/A   Clear
11:58 AM 46.9 °F - 12.0 °F 24% 30.17 in 10.0 mi Variable 4.6 mph - N/A   Clear
12:58 PM 48.9 °F - 12.0 °F 23% 30.13 in 10.0 mi SW 6.9 mph - N/A   Clear
1:58 PM 50.0 °F - 12.9 °F 23% 30.11 in 10.0 mi Variable 3.5 mph - N/A   Clear
2:58 PM 52.0 °F - 14.0 °F 22% 30.10 in 10.0 mi WSW 4.6 mph - N/A   Clear
3:58 PM 52.0 °F - 17.1 °F 25% 30.09 in 10.0 mi Variable 4.6 mph - N/A   Clear
4:58 PM 48.9 °F - 19.0 °F 31% 30.11 in 10.0 mi SW 4.6 mph - N/A   Clear
5:58 PM 44.1 °F 39.5 °F 27.0 °F 51% 30.11 in 10.0 mi SSW 8.1 mph - N/A   Clear
6:58 PM 43.0 °F 38.8 °F 26.1 °F 51% 30.13 in 10.0 mi SW 6.9 mph - N/A   Clear
7:58 PM 39.0 °F 34.0 °F 27.0 °F 62% 30.13 in 10.0 mi SSW 6.9 mph - N/A   Clear
8:58 PM 41.0 °F 37.1 °F 27.0 °F 57% 30.14 in 10.0 mi SW 5.8 mph - N/A   Clear
9:58 PM 39.0 °F 34.8 °F 28.9 °F 67% 30.14 in 10.0 mi SSW 5.8 mph - N/A   Clear
10:58 PM 39.9 °F 35.1 °F 30.0 °F 68% 30.12 in 10.0 mi SW 6.9 mph - N/A   Clear
11:58 PM 41.0 °F 36.4 °F 30.9 °F 67% 30.10 in 10.0 mi SW 6.9 mph - N/A   Clear